Weather Roundup
Issued by NWS

Home | Current Version | Previous Version | Graphics & Text | Print | Product List | Glossary Off
Versions: 1 2 3 4 5 6 7 8 9 10 11 12 13 14 15 16 17 18 19 20 21 22 23 24 25 26 27 28 29 30 31 32 33 34 35 36 37 38 39 40 41 42 43 44 45 46 47 48 49 50

000
NZUS93 KARX 290110
HRRWXR

CURRENT HOURLY OBSERVATIONS ACROSS
MUCH OF THE UPPER MISSISSIPPI VALLEY
NATIONAL WEATHER SERVICE LA CROSSE WI
800 PM CDT SUN AUG 28 2016


...SOUTHEAST MINNESOTA...


CITY           SKY/WX    TMP DP  RH WIND       PRES   REMARKS
ROCHESTER      CLEAR     74  71  91 SE5       30.16R
ROCHESTER/MAYO FAIR      78  71  78 SE7       30.15R
WINONA         PTCLDY    73  68  83 SE5       30.15R
AUSTIN         CLEAR     73  70  88 SE3       30.14R
ALBERT LEA     CLEAR     75  72  88 SE5       30.13S
DODGE CENTER   CLEAR     73  66  78 S6        30.15R
PRESTON        CLEAR     75  69  79 SE5       30.17R
OWATONNA       CLEAR     77  68  73 S5        30.13R
FARIBAULT      CLEAR     75  70  83 SE6       30.12S
$$

...ELSEWHERE IN MINNESOTA...


CITY           SKY/WX    TMP DP  RH WIND       PRES   REMARKS
MINNEAPOLIS    PTCLDY    79  68  69 SE7       30.10S
INTNL FALLS    CLOUDY    68  63  84 SE3       30.10R
DULUTH         PTCLDY    65  62  90 E9        30.15S
RED WING       CLEAR     77  70  78 SE7       30.11S
REDWOOD FALLS  CLEAR     80  69  69 SE13      30.05R
MANKATO        CLEAR     77  70  78 SE8       30.10R
WORTHINGTON    CLOUDY    78  73  84 SE9       30.10R
FAIRMONT       NOT AVBL
$$

...SOUTHWEST WISCONSIN...


CITY           SKY/WX    TMP DP  RH WIND       PRES   REMARKS
LA CROSSE      PTCLDY    77  70  79 SE7       30.15R
PRAIRIE DU CHI CLOUDY    77  71  80 SE3       30.14S
BOSCOBEL       CLEAR     76  72  87 CALM      30.17R
LONE ROCK      CLEAR     73  69  87 E5        30.18R
PLATTEVILLE    MOCLDY    77  72  84 E5        30.18S
FORT MC COY    CLEAR     72  68  88 CALM      30.18S
CAMP DOUGLAS   CLEAR     70  67  90 SE2       30.18S
MAUSTON-NEW LI CLEAR     71  69  94 CALM      30.18S
VIROQUA        FAIR      71  69  93 E5        30.19R
WIS DELLS      CLEAR     69  66  89 SE3       30.19R
$$

...ELSEWHERE IN WISCONSIN...


CITY           SKY/WX    TMP DP  RH WIND       PRES   REMARKS
MILWAUKEE      PTCLDY    71  66  84 SE5       30.20R
MADISON        CLOUDY    73  68  84 NE5       30.18R
GREEN BAY      CLEAR     69  67  93 E7        30.20R
EAU CLAIRE     CLEAR     73  66  78 SE5       30.15R
BLACK RVR FLS  FAIR      71  70  97 CALM      30.17R
MEDFORD        CLEAR     69  66  92 SE3       30.20S
WAUSAU         CLEAR     72  63  73 CALM      30.19R
WIS RAPIDS       N/A     70  69  97 CALM      30.21R
MARSHFIELD     CLEAR     72  64  76 SE5       30.19R
RICE LAKE      CLEAR     71  65  82 E3        30.18R
$$

...NORTHEAST IOWA...


CITY           SKY/WX    TMP DP  RH WIND       PRES   REMARKS
WATERLOO       CLOUDY    79  69  71 SE7       30.12R
DUBUQUE        MOCLDY    72  69  90 S8        30.18R
DECORAH        PTCLDY    75  72  88 E7        30.15S
MASON CITY     PTCLDY    76  72  87 SE6       30.14R
CHARLES CITY   CLOUDY    77  75  94 E6        30.14R
OELWEIN        CLOUDY    75  72  88 SE6       30.15S
$$

...ELSEWHERE IN IOWA...


CITY           SKY/WX    TMP DP  RH WIND       PRES   REMARKS
DES MOINES     CLOUDY    75  69  81 S7        30.08F
IOWA CITY      TSTM      69  67  93 SE18G26   30.18R FOG
FORT DODGE     CLOUDY    77  64  65 S8        30.12S
MARSHALLTOWN   CLOUDY    77  74  90 E3        30.11S
CEDAR RAPIDS   CLOUDY    76  71  85 E16G26    30.14R
$$

...NORTHERN ILLINOIS...


CITY           SKY/WX    TMP DP  RH WIND       PRES   REMARKS
CHICAGO-OHARE  CLOUDY    74  68  81 E7        30.17S
CHICAGO-MIDWAY CLOUDY    76  68  76 NE12      30.16F
MOLINE         CLOUDY    74  68  81 CALM      30.16S
ROCKFORD       CLOUDY    75  68  78 E5        30.18R
PEORIA         PTCLDY    76  71  85 CALM      30.13S
$$

NOTE: "FAIR" INDICATES FEW OR NO CLOUDS BELOW 12,000 FEET WITH NO
SIGNIFICANT WEATHER AND/OR OBSTRUCTIONS TO VISIBILITY. WIND
SPEEDS ARE IN MILES-PER-HOUR.




USA.gov is the U.S. government's official web portal to all federal, state and local government web resources and services.